Regional Weather Roundup
Issued by NWS

Home | Current Version | Previous Version | Graphics & Text | Print | Product List | Glossary On
Versions: 1 2 3 4 5 6 7 8 9 10 11 12 13 14 15 16 17 18 19 20 21 22 23 24 25 26 27 28 29 30 31 32 33 34 35 36 37 38 39 40 41 42 43 44 45 46 47 48 49 50
000
ASUS43 KTOP 012208
RWRKS

WEATHER ROUNDUP FOR KANSAS
NATIONAL WEATHER SERVICE GOODLAND KS
400 PM CST THU DEC 01 2016

NOTE:  "FAIR" INDICATES FEW OR NO CLOUDS BELOW 12,000 FEET WITH NO
SIGNIFICANT WEATHER AND/OR OBSTRUCTIONS TO VISIBILITY.

KSZ001>006-013>018-027>032-041>047-012300-
NORTHWEST KANSAS

CITY           SKY/WX    TMP DP  RH WIND       PRES   REMARKS
GOODLAND       SUNNY     45   9  23 W6        29.94S
HAYS           SUNNY     49  16  26 CALM      29.99S
HILL CITY      SUNNY     49  16  26 NW5       29.98S
RUSSELL        SUNNY     48  17  29 CALM      29.98S
$$

KSZ061>065-074>080-084>089-012300-
SOUTHWEST KANSAS

CITY           SKY/WX    TMP DP  RH WIND       PRES   REMARKS
DODGE CITY     SUNNY     49  11  21 E5        29.97S
ELKHART          N/A     47  13  25 SE6         N/A
GARDEN CITY    SUNNY     49  11  21 E5        29.96R
GREAT BEND     SUNNY     48  16  27 NE5       30.00R
LIBERAL        SUNNY     48  12  23 E7        29.96R
PRATT          SUNNY     48  13  24 E7        29.97F
$$

KSZ066>073-081>083-090>101-012300-
SOUTHEAST KANSAS

CITY           SKY/WX    TMP DP  RH WIND       PRES   REMARKS
CHANUTE        PTCLDY    49  24  37 CALM      30.03S
COFFEYVILLE    CLOUDY    52  27  38 W5        30.03S
HUTCHINSON     SUNNY     50  16  25 S3        30.00
MEDICINE LODGE   N/A     52  19  27 E10       29.97S
NEWTON         SUNNY     50  20  30 SE3       30.01R
PARSONS        MOCLDY    49  26  41 SW3       30.04S
WICHITA INTL   MOSUNNY   54  20  26 CALM      29.99S
WICHITA JABRA  SUNNY     52  20  28 CALM      30.00S
WICHITA MCCONL SUNNY     56  20  24 E3        29.99S
WINFIELD       PTSUNNY   55  25  31 CALM      29.99F
$$

KSZ007>012-019>026-033>040-048>060-102>105-012300-
NORTHEAST KANSAS

CITY           SKY/WX    TMP DP  RH WIND       PRES   REMARKS
CONCORDIA      CLEAR     44  21  40 W7        30.00S
EMPORIA        CLEAR     48  22  35 NW3       30.02S
LAWRENCE       CLEAR     43  25  49 W7        30.04S
MANHATTAN      CLEAR     47  24  40 W5        30.02S
MARYSVILLE     CLEAR     45  27  49 NW7       30.00S
OLATHE IND     CLEAR     42  24  49 W8        30.04R
OLATHE EXE     CLEAR     42  23  46 NW7       30.03S
SALINA         SUNNY     49  22  34 S3        30.01F
TOPEKA BILLARD CLEAR     45  24  43 SW5       30.03S
TOPEKA FORBES  CLEAR     47  23  38 W7        30.03R
$$




USA.gov is the U.S. government's official web portal to all federal, state and local government web resources and services.